Content
SEND FEEDBACK

Daily
Averages
Monthly
Summary
France

FLORANGE, FRANCE


Home > Europe > France
Elevation: 637 feet     Latitude: 49 30N     Longitude: 006 17E

WEATHER
 
SELECT A DAY
Number of Records: 313,994;   Date Range: 7/1/96 - 12/16/14
 
SHARE

PRINT THIS DATA

[ ← Previous Day ]
WEATHER ALMANAC - MARCH 29, 2014
[ Next Day → ]
[ °C ]   °F
Weather ElementAverageHighLow
Temperature53.4 °F66.2 °F (3:20 pm)41 °F (3:50 am)
Dewpoint35.7 °F41 °F (11:20 am)32 °F (2:20 pm)
Humidity50.7 %81 % (3:50 am)18 % (4:00 pm)
Barometer30.06 in30.12 in (8:00 am)30.00 in (4:00 pm)
Wind Speed7.4 mph11.2 mph (2:00 am)
Weather ElementAverage
Visibility13.3 mi
Wind DirectionENE (79.7 °)

Weather ElementTotal
Precipitation---
Heating Degree Days11.4 (Base 65)
Growing Degree Days3.6 (Base 50)
Averaged from 71 records on March 29, 2014
WEATHER CONDITIONS BREAKOUT
WIND DIRECTION BREAKOUT
WEATHER BY HOUR - MARCH 29, 2014
[ °C ]   °F
Local TimeTemperatureDewpointHumidityBarometerVisibilityWind DirectionWind SpeedGust SpeedPrecipitationEventsConditions
12:20 AM48.2 °F35.6 °F62 %30.04 inENE (60°)9.2 mphClear
12:50 AM48.2 °F35.6 °F62 %30.04 inENE (60°)9.2 mphClear
1:00 AM48.0 °F36.0 °F52 %30.08 in19.0 miENE (60°)8.9 mphClear
1:20 AM46.4 °F35.6 °F66 %30.04 in6.2 miENE (60°)9.2 mph
1:50 AM44.6 °F35.6 °F71 %30.04 in6.2 miENE (60°)10.4 mph
2:00 AM45.0 °F36.0 °F61 %30.09 in6.0 miENE (60°)11.2 mph
2:20 AM42.8 °F35.6 °F76 %30.04 in6.2 miENE (60°)9.2 mph
2:50 AM42.8 °F35.6 °F76 %30.06 in6.2 miENE (60°)9.2 mph
3:00 AM42.0 °F35.0 °F69 %30.09 in6.0 miENE (60°)8.9 mph
3:20 AM42.8 °F35.6 °F76 %30.06 in6.2 miENE (60°)8.1 mph
3:50 AM41.0 °F35.6 °F81 %30.06 inENE (60°)8.1 mphClear
4:00 AM41.0 °F35.0 °F72 %30.10 in19.0 miENE (60°)8.9 mphClear
4:20 AM41.0 °F35.6 °F81 %30.06 inNE (50°)6.9 mphClear
4:50 AM42.8 °F35.6 °F76 %30.06 inENE (60°)6.9 mphClear
5:00 AM42.0 °F35.0 °F70 %30.10 in19.0 miENE (60°)6.7 mphClear
5:20 AM42.8 °F35.6 °F76 %30.06 inNE (50°)6.9 mphClear
5:50 AM42.8 °F35.6 °F76 %30.06 inNE (50°)8.1 mphClear
6:00 AM43.0 °F36.0 °F67 %30.11 in19.0 miNE (50°)6.7 mphClear
6:20 AM42.8 °F35.6 °F76 %30.06 inNE (50°)6.9 mphClear
6:50 AM44.6 °F35.6 °F71 %30.06 inNE (50°)8.1 mphClear
7:00 AM44.0 °F36.0 °F64 %30.11 in19.0 miNE (50°)8.9 mphClear
7:20 AM44.6 °F35.6 °F71 %30.06 inENE (60°)6.9 mphClear
7:50 AM46.4 °F35.6 °F66 %30.09 inENE (60°)6.9 mphClear
8:00 AM46.0 °F37.0 °F60 %30.12 in7.0 miENE (60°)6.7 mphClear
8:20 AM46.4 °F37.4 °F71 %30.09 inENE (60°)6.9 mphClear
8:50 AM48.2 °F37.4 °F66 %30.09 inENE (60°)8.1 mphClear
9:00 AM48.0 °F38.0 °F57 %30.12 in7.0 miENE (60°)6.7 mphClear
9:20 AM50.0 °F37.4 °F62 %30.09 inENE (60°)8.1 mphClear
9:50 AM53.6 °F39.2 °F58 %30.09 inENE (70°)5.8 mphClear
10:00 AM52.0 °F38.0 °F49 %30.11 in9.0 miENE (60°)6.7 mphClear
10:20 AM53.6 °F39.2 °F58 %30.09 inEast (80°)4.6 mphClear
10:50 AM57.2 °F39.2 °F51 %30.09 inVariable5.8 mphClear
11:00 AM56.0 °F40.0 °F44 %30.11 in9.0 miESE (110°)6.7 mphClear
11:20 AM57.2 °F41.0 °F55 %30.09 inEast (80°)6.9 mphClear
11:50 AM59.0 °F41.0 °F51 %30.09 inEast (90°)5.8 mphClear
12:00 PM59.0 °F41.0 °F39 %30.09 in10.0 miEast (90°)6.7 mphClear
12:20 PM60.8 °F41.0 °F48 %30.09 inEast (100°)6.9 mphClear
12:50 PM62.6 °F39.2 °F42 %30.06 inEast (90°)8.1 mphClear
1:00 PM62.0 °F38.0 °F30 %30.07 in11.0 miENE (70°)6.7 mphClear
1:20 PM62.6 °F35.6 °F37 %30.06 inESE (120°)6.9 mphClear
1:50 PM64.4 °F33.8 °F32 %30.06 inSSE (160°)5.8 mphClear
2:00 PM64.0 °F34.0 °F22 %30.05 in11.0 miESE (120°)6.7 mphClear
2:20 PM64.4 °F32.0 °F30 %30.04 inSSE (150°)8.1 mphClear
2:50 PM64.4 °F33.8 °F32 %30.04 inSE (140°)8.1 mphClear
3:00 PM65.0 °F35.0 °F22 %30.02 in19.0 miSE (140°)6.7 mphClear
3:20 PM66.2 °F33.8 °F30 %30.04 inESE (120°)9.2 mphClear
3:50 PM66.2 °F33.8 °F30 %30.01 inESE (110°)8.1 mphClear
4:00 PM66.0 °F33.0 °F18 %30.00 in19.0 miESE (120°)6.7 mphClear
4:20 PM66.2 °F33.8 °F30 %30.01 inEast (100°)9.2 mphClear
4:50 PM64.4 °F32.0 °F30 %30.01 inESE (120°)9.2 mphClear
5:00 PM65.0 °F33.0 °F19 %30.00 in19.0 miESE (120°)8.9 mphClear
5:20 PM64.4 °F33.8 °F32 %30.01 inESE (120°)8.1 mphClear
5:50 PM62.6 °F35.6 °F37 %30.01 inEast (100°)6.9 mphClear
6:00 PM64.0 °F34.0 °F21 %30.00 in19.0 miESE (110°)6.7 mphClear
6:20 PM62.6 °F33.8 °F34 %30.01 inESE (120°)4.6 mphClear
6:50 PM60.8 °F33.8 °F36 %30.01 inEast (100°)5.8 mphClear
7:00 PM60.0 °F34.0 °F26 %30.01 in19.0 miEast (100°)4.5 mphClear
7:20 PM59.0 °F35.6 °F42 %30.01 inESE (110°)5.8 mphClear
7:50 PM57.2 °F35.6 °F44 %30.04 inEast (100°)5.8 mphClear
8:00 PM58.0 °F35.0 °F30 %30.03 in19.0 miEast (100°)6.7 mphClear
8:20 PM55.4 °F35.6 °F47 %30.04 inEast (80°)4.6 mphClear
8:50 PM53.6 °F35.6 °F51 %30.04 inENE (70°)6.9 mphClear
9:00 PM54.0 °F36.0 °F38 %30.05 in19.0 miENE (70°)6.7 mphClear
9:20 PM53.6 °F35.6 °F51 %30.04 inENE (60°)8.1 mphClear
9:50 PM51.8 °F33.8 °F50 %30.04 inENE (70°)6.9 mphClear
10:00 PM53.0 °F35.0 °F38 %30.05 in19.0 miENE (70°)6.7 mphClear
10:20 PM53.6 °F33.8 °F47 %30.04 inENE (70°)8.1 mphClear
10:50 PM53.6 °F33.8 °F47 %30.04 inENE (60°)8.1 mphClear
11:00 PM53.0 °F34.0 °F37 %30.04 in19.0 miENE (60°)6.7 mphClear
11:20 PM51.8 °F33.8 °F50 %30.04 inENE (60°)8.1 mphClear
11:50 PM51.8 °F33.8 °F50 %30.04 inENE (60°)9.2 mphClear
Hourly data recorded from ELLX, located miles away from Florange, France







STORIES FROM OUR PARTNERS